Regional Weather Roundup
Issued by NWS

Home | Current Version | Previous Version | Graphics & Text | Print | Product List | Glossary On
Versions: 1 2 3 4 5 6 7 8 9 10 11 12 13 14 15 16 17 18 19 20 21 22 23 24 25 26 27 28 29 30 31 32 33 34 35 36 37 38 39 40 41 42 43 44 45 46 47 48 49 50
000
ASUS43 KDTX 260201
RWRMI
MICHIGAN HOURLY REGIONAL WEATHER ROUNDUP
NATIONAL WEATHER SERVICE DETROIT/PONTIAC MI
900 PM EST TUE NOV 25 2014

NOTE: "FAIR" INDICATES FEW OR NO CLOUDS BELOW 12,000 FEET WITH NO
SIGNIFICANT WEATHER AND/OR OBSTRUCTION TO VISIBILITY.

MIZ047>049-052>055-059>063-066>070-074>076-081>083-260300-
SOUTHEAST LOWER MICHIGAN

CITY           SKY/WX    TMP DP  RH WIND       PRES   REMARKS
ADRIAN         CLOUDY    28  20  71 CALM      30.20R
ALMA           CLOUDY    29  23  76 W7        30.15S WCI  22
ANN ARBOR      CLOUDY    30  21  69 SW7       30.18R WCI  23
BAD AXE        CLOUDY    31  26  80 W8        30.13S WCI  24
CARO           CLOUDY    30  23  74 W8        30.14R WCI  23
DETROIT CITY   CLOUDY    33  21  61 W6        30.19R WCI  28
DETROIT        CLOUDY    31  21  66 SW8       30.20R WCI  23
FLINT          CLOUDY    32  22  66 W10       30.16R WCI  24
GROSSE ILE     CLOUDY    30  21  69 SW5       30.19R WCI  25
HILLSDALE      CLOUDY    27  22  79 CALM      30.16S
HOWELL         CLOUDY    29  21  71 W8        30.15R WCI  21

CITY           SKY/WX    TMP DP  RH WIND       PRES   REMARKS
JACKSON        CLOUDY    28  21  75 W6        30.16R WCI  22
LAMBERTVILLE   CLOUDY    32  21  64 CALM      30.22R
LANSING        CLOUDY    29  21  72 W8        30.16R WCI  21
LAPEER         CLOUDY    31  23  72 W5        30.15R WCI  26
MASON          CLOUDY    30  23  75 W5        30.16R WCI  25
MONROE         CLOUDY    30  23  74 CALM      30.19R
MT. CLEMENS    CLOUDY    32  24  73 SW6       30.16R WCI  26
PONTIAC        FLURRIES  30  20  66 W9        30.14R WCI  22
PORT HOPE        N/A     33  23  66 W5        30.11R WCI  29
PORT HURON     CLOUDY    32  23  69 W6        30.17R WCI  26
TRI CITIES     CLOUDY    31  21  66 W12       30.15S WCI  22
TROY           CLOUDY    33  23  68 SW5       30.18R WCI  28
SAGINAW HB     CLOUDY    32  23  69 W10       30.14S WCI  24
$$
MIZ043>046-050>051-056>058-064>065-071>073-077>080-260300-
SOUTHWEST LOWER MICHIGAN

CITY           SKY/WX    TMP DP  RH WIND       PRES   REMARKS
BATTLE CREEK   CLOUDY    29  20  69 SW7       30.17R WCI  22
BENTON HARBOR  CLOUDY    26  20  77 S9        30.17S WCI  17
BIG RAPIDS     CLOUDY    27  23  87 CALM      30.12S
COLDWATER      CLOUDY    28  22  75 SW5       30.17S WCI  23
FREMONT        CLOUDY    27  23  87 CALM      30.14S
HOLLAND        CLOUDY    31  23  72 SW3       30.16R
GRAND RAPIDS   CLOUDY    29  22  75 W7        30.15R WCI  22
IONIA          CLOUDY    30  23  74 W6        30.14S WCI  24
KALAMAZOO      CLOUDY    28  21  75 SW7       30.17R WCI  21
LUDINGTON      CLOUDY    27  22  81 CALM      30.14R
MARSHALL       CLOUDY    27  21  77 SW5       30.16R WCI  22
MOUNT PLEASANT CLOUDY    29  21  71 W5        30.14R WCI  24
MUSKEGON       CLOUDY    30  21  69 SW7       30.15S WCI  23
SOUTH HAVEN    CLOUDY    31  24  77 S3        30.16S
$$
MIZ016>042-260300-
NORTHERN LOWER MICHIGAN

CITY           SKY/WX    TMP DP  RH WIND       PRES   REMARKS
ALPENA         CLOUDY    27  26  96 W3        30.11R
BEAVER ISLAND  CLOUDY    29  20  70 W3        30.08S
BELLAIRE       CLOUDY    29  23  78 CALM      30.11R
CADILLAC       CLOUDY    24  20  83 SW5       30.08R WCI  18
CHARLEVOIX     CLOUDY    28  22  78 SW6       30.12R WCI  22
FRANKFORT      CLOUDY    27  22  79 W6        30.12R WCI  21
GAYLORD        CLOUDY    24  21  88 SW10      30.06R WCI  14
GRAYLING       CLOUDY    26  22  87 CALM      30.09R
HARBOR SPRINGS CLOUDY    27  22  80 CALM      30.08R
HOUGHTON LAKE  CLOUDY    26  20  77 W5        30.10R WCI  20
MANISTEE       CLOUDY    27  19  74 S3        30.13R
OSCODA         CLOUDY    29  24  79 W9        30.12S WCI  21
PELLSTON       CLOUDY    25  23  92 CALM      30.09R
ROGERS CITY    CLOUDY    27  25  94 W3        30.10R
TRAVERSE CITY  FLURRIES  28  22  78 VRB3      30.10R
$$
MIZ007>008-015-260300-
EASTERN UPPER MICHIGAN

CITY           SKY/WX    TMP DP  RH WIND       PRES   REMARKS
KINROSS        CLOUDY    23  21  93 SW5       30.06R WCI  17
MACKINAC ISLAN CLOUDY    27  20  75 NW8       30.08R WCI  18
NEWBERRY       CLOUDY    23  20  88 SW6       30.07R WCI  15
S. S. MARIE    CLOUDY    27  15  61 W13       30.05R WCI  16
MUNISING         N/A     15  10  80 S7        30.09R WCI   5
$$
MIZ004>006-011>014-085-260300-
CENTRAL UPPER MICHIGAN

CITY           SKY/WX    TMP DP  RH WIND       PRES   REMARKS
MANISTIQUE     CLOUDY    18  16  91 CALM      30.09R
ESCANABA       PTCLDY    10   7  85 CALM      30.08S
MENOMINEE      CLEAR     19  16  86 W5        30.10R WCI  13
SAWYER-GWINN   CLEAR      9   5  85 CALM      30.04R
$$
MIZ001>003-009>011-084-260300-
WESTERN UPPER MICHIGAN

CITY           SKY/WX    TMP DP  RH WIND       PRES   REMARKS
IRON MOUNTAIN  CLEAR      5   2  87 CALM      30.04S
HOUGHTON       CLOUDY    20  13  74 SW5       30.02R WCI  13
COPPER HARBOR    N/A     18  12  77 VRB6      30.04R WCI  10
IRONWOOD       PTCLDY     3   3 100 CALM      30.01R
$$

ABBREVIATIONS USED IN REMARKS
   TC - TEMPERATURE IN CELSIUS
  WCI - WIND CHILL INDEX
   HX - HEAT INDEX
  VSB - VISIBILITY




USA.gov is the U.S. government's official web portal to all federal, state and local government web resources and services.